Terminal Aerodrome Forecast
Issued by NWS Sioux Falls, SD

Home | Current Version | Previous Version | Text Only | Print | Product List | Glossary Off
Versions: 1 2 3 4 5 6 7 8 9 10 11 12 13 14 15 16 17 18 19 20 21

000
FTUS43 KFSD 240546
TAFFSD
TAF
KFSD 240546Z 2406/2506 15010KT P6SM OVC150
     FM240900 14012KT P6SM SCT012 BKN100
     FM241300 13015G21KT P6SM SCT015 OVC080
      TEMPO 2415/2417 P6SM -RA BKN015
     FM241700 14014G21KT 5SM -RA BR OVC018
     FM242300 13013KT 6SM -RA BKN015
     FM250100 14008KT P6SM SCT015=

USA.gov is the U.S. government's official web portal to all federal, state and local government web resources and services.